When you browse on this site, cookies collect data to enhance your experience and personalize the content and advertising you see.
Visit our Privacy Policy to learn more. By continuing to use the site, you agree to this use of cookies and data.
  • In United Kingdom
  • List of Countries
  • For 7 days
  • Water Temperature
  • Weather Map
  • Weather Widgets
  • user-avatar
    Login

    Hourly Weather Jewłach

    Today, 20 February, Thursday

    Time Temperature Precipitation Wind Pressure Humidity
    00:00 +10°C° 0 mm 1 mps 760 mmHg 52%
    01:00 +9°C° 0 mm 1 mps 759 mmHg 53%
    02:00 +9°C° 0 mm 1 mps 759 mmHg 55%
    03:00 +8°C° 0 mm 1 mps 759 mmHg 56%
    04:00 +8°C° 0 mm 1 mps 759 mmHg 56%
    05:00 +8°C° 0 mm 0 mps 759 mmHg 55%
    06:00 +8°C° 0 mm 0 mps 759 mmHg 55%
    07:00 +8°C° 0 mm 0 mps 759 mmHg 55%
    08:00 +8°C° 0 mm 0 mps 760 mmHg 56%
    09:00 +9°C° 0 mm 1 mps 760 mmHg 59%
    10:00 +9°C° 0.1 mm 1 mps 760 mmHg 62%
    11:00 +9°C° 0.1 mm 1 mps 760 mmHg 65%
    12:00 +9°C° 0.1 mm 1 mps 760 mmHg 68%
    13:00 +10°C° 0 mm 1 mps 759 mmHg 66%
    14:00 +10°C° 0 mm 1 mps 759 mmHg 64%
    15:00 +11°C° 0 mm 1 mps 758 mmHg 60%
    16:00 +11°C° 0 mm 1 mps 759 mmHg 62%
    17:00 +11°C° 0 mm 1 mps 759 mmHg 65%
    18:00 +9°C° 0 mm 0 mps 759 mmHg 68%
    19:00 +9°C° 0 mm 0 mps 759 mmHg 70%
    20:00 +8°C° 0 mm 0 mps 760 mmHg 73%
    21:00 +8°C° 0 mm 0 mps 760 mmHg 76%
    22:00 +7°C° 0 mm 0 mps 760 mmHg 78%
    23:00 +7°C° 0 mm 0 mps 760 mmHg 80%

    Tomorrow, 21 February, Friday

    Time Temperature Precipitation Wind Pressure Humidity
    00:00 +7°C° 0 mm 0 mps 760 mmHg 81%
    01:00 +7°C° 0 mm 0 mps 760 mmHg 82%
    02:00 +6°C° 0 mm 0 mps 760 mmHg 83%
    03:00 +6°C° 0 mm 0 mps 760 mmHg 84%
    04:00 +6°C° 0 mm 0 mps 760 mmHg 84%
    05:00 +6°C° 0 mm 0 mps 760 mmHg 85%
    06:00 +5°C° 0 mm 0 mps 760 mmHg 85%
    07:00 +7°C° 0 mm 0 mps 761 mmHg 80%
    08:00 +8°C° 0 mm 0 mps 761 mmHg 74%
    09:00 +9°C° 0 mm 0 mps 761 mmHg 69%
    16:00 +15°C° 0 mm 1 mps 760 mmHg 50%
    17:00 +14°C° 0 mm 2 mps 761 mmHg 52%
    18:00 +14°C° 0 mm 2 mps 761 mmHg 55%
    19:00 +12°C° 0 mm 3 mps 761 mmHg 61%
    20:00 +11°C° 0 mm 4 mps 762 mmHg 66%
    21:00 +9°C° 0 mm 5 mps 762 mmHg 72%
    22:00 +8°C° 0 mm 4 mps 762 mmHg 76%
    23:00 +7°C° 0 mm 4 mps 762 mmHg 81%

    Day after tomorrow, 22 February, Saturday

    Time Temperature Precipitation Wind Pressure Humidity
    00:00 +7°C° 0 mm 4 mps 762 mmHg 86%
    01:00 +8°C° 0 mm 3 mps 763 mmHg 85%
    02:00 +8°C° 0 mm 3 mps 763 mmHg 84%
    03:00 +8°C° 0 mm 2 mps 763 mmHg 82%
    04:00 +8°C° 0 mm 2 mps 763 mmHg 83%
    05:00 +8°C° 0 mm 2 mps 763 mmHg 83%
    06:00 +9°C° 0 mm 1 mps 763 mmHg 83%
    07:00 +8°C° 0 mm 2 mps 763 mmHg 81%
    08:00 +8°C° 0 mm 2 mps 763 mmHg 80%
    09:00 +8°C° 0 mm 2 mps 764 mmHg 78%
    10:00 +9°C° 0 mm 2 mps 764 mmHg 77%
    11:00 +9°C° 0 mm 2 mps 764 mmHg 75%
    12:00 +10°C° 0 mm 2 mps 763 mmHg 73%
    13:00 +10°C° 0 mm 2 mps 763 mmHg 72%
    14:00 +10°C° 0 mm 2 mps 763 mmHg 71%
    15:00 +11°C° 0 mm 1 mps 763 mmHg 70%
    16:00 +11°C° 0 mm 1 mps 763 mmHg 72%
    17:00 +11°C° 0 mm 1 mps 763 mmHg 74%
    18:00 +10°C° 0 mm 1 mps 763 mmHg 77%
    19:00 +10°C° 0 mm 1 mps 763 mmHg 79%
    20:00 +10°C° 0 mm 1 mps 763 mmHg 82%
    21:00 +8°C° 0 mm 0 mps 764 mmHg 84%
    22:00 +8°C° 0 mm 0 mps 763 mmHg 84%
    23:00 +8°C° 0 mm 0 mps 763 mmHg 84%

    23 February, Sunday

    Time Temperature Precipitation Wind Pressure Humidity
    00:00 +8°C° 0 mm 0 mps 763 mmHg 85%
    01:00 +8°C° 0 mm 0 mps 763 mmHg 85%
    02:00 +9°C° 0 mm 1 mps 763 mmHg 86%
    03:00 +8°C° 0 mm 1 mps 763 mmHg 86%
    04:00 +8°C° 0 mm 1 mps 763 mmHg 87%
    05:00 +8°C° 0 mm 1 mps 763 mmHg 87%
    06:00 +7°C° 0 mm 1 mps 763 mmHg 87%
    07:00 +8°C° 0 mm 1 mps 763 mmHg 81%
    08:00 +10°C° 0 mm 1 mps 763 mmHg 75%
    09:00 +11°C° 0 mm 1 mps 763 mmHg 69%
    10:00 +12°C° 0 mm 1 mps 762 mmHg 64%
    11:00 +13°C° 0 mm 2 mps 762 mmHg 58%
    12:00 +14°C° 0 mm 2 mps 761 mmHg 52%
    13:00 +15°C° 0 mm 2 mps 761 mmHg 49%
    14:00 +16°C° 0 mm 2 mps 761 mmHg 45%
    15:00 +16°C° 0 mm 3 mps 760 mmHg 42%
    16:00 +15°C° 0 mm 2 mps 760 mmHg 45%
    17:00 +14°C° 0 mm 1 mps 761 mmHg 49%
    18:00 +14°C° 0 mm 1 mps 761 mmHg 52%
    19:00 +13°C° 0 mm 1 mps 761 mmHg 55%
    20:00 +12°C° 0 mm 1 mps 761 mmHg 58%
    21:00 +12°C° 0 mm 1 mps 761 mmHg 60%
    22:00 +11°C° 0 mm 1 mps 761 mmHg 61%
    23:00 +10°C° 0 mm 2 mps 761 mmHg 62%

    24 February, Monday

    Time Temperature Precipitation Wind Pressure Humidity
    00:00 +10°C° 0 mm 2 mps 761 mmHg 62%
    01:00 +9°C° 0 mm 2 mps 760 mmHg 66%
    02:00 +9°C° 0 mm 2 mps 760 mmHg 69%
    03:00 +8°C° 0 mm 2 mps 760 mmHg 72%
    04:00 +8°C° 0 mm 2 mps 759 mmHg 74%
    05:00 +7°C° 0 mm 2 mps 759 mmHg 76%
    06:00 +7°C° 0 mm 2 mps 759 mmHg 77%
    07:00 +8°C° 0 mm 3 mps 759 mmHg 70%
    08:00 +10°C° 0 mm 3 mps 759 mmHg 63%
    09:00 +11°C° 0 mm 4 mps 759 mmHg 56%
    10:00 +12°C° 0 mm 4 mps 758 mmHg 50%
    11:00 +14°C° 0 mm 4 mps 758 mmHg 44%
    12:00 +15°C° 0 mm 4 mps 757 mmHg 37%
    13:00 +17°C° 0 mm 4 mps 756 mmHg 36%
    14:00 +17°C° 0 mm 3 mps 756 mmHg 34%
    15:00 +18°C° 0 mm 3 mps 755 mmHg 32%
    16:00 +16°C° 0 mm 2 mps 755 mmHg 35%
    17:00 +15°C° 0 mm 1 mps 755 mmHg 38%
    18:00 +14°C° 0 mm 1 mps 755 mmHg 41%
    19:00 +14°C° 0 mm 1 mps 755 mmHg 44%
    20:00 +13°C° 0 mm 1 mps 754 mmHg 47%
    21:00 +13°C° 0 mm 2 mps 754 mmHg 50%
    22:00 +12°C° 0 mm 2 mps 753 mmHg 59%
    23:00 +10°C° 0 mm 2 mps 753 mmHg 68%

    25 February, Tuesday

    Time Temperature Precipitation Wind Pressure Humidity
    00:00 +9°C° 0 mm 2 mps 752 mmHg 77%
    01:00 +9°C° 0 mm 2 mps 751 mmHg 80%
    02:00 +9°C° 0 mm 1 mps 751 mmHg 83%
    03:00 +9°C° 0 mm 1 mps 750 mmHg 85%
    04:00 +9°C° 0 mm 1 mps 750 mmHg 84%
    05:00 +7°C° 0 mm 2 mps 750 mmHg 83%
    06:00 +7°C° 0 mm 2 mps 749 mmHg 82%
    07:00 +8°C° 0 mm 6 mps 749 mmHg 70%
    08:00 +8°C° 0 mm 10 mps 749 mmHg 57%
    09:00 +9°C° 0 mm 14 mps 749 mmHg 45%
    10:00 +10°C° 0 mm 14 mps 749 mmHg 39%
    11:00 +12°C° 0 mm 14 mps 748 mmHg 34%
    12:00 +13°C° 0 mm 14 mps 748 mmHg 29%
    13:00 +13°C° 0 mm 15 mps 748 mmHg 28%
    14:00 +13°C° 0 mm 15 mps 747 mmHg 27%
    15:00 +13°C° 0 mm 15 mps 747 mmHg 26%
    16:00 +11°C° 0 mm 15 mps 748 mmHg 28%
    17:00 +10°C° 0 mm 15 mps 749 mmHg 31%
    18:00 +9°C° 0 mm 15 mps 749 mmHg 33%
    19:00 +8°C° 0 mm 15 mps 750 mmHg 34%
    20:00 +8°C° 0 mm 15 mps 751 mmHg 35%
    21:00 +8°C° 0 mm 15 mps 752 mmHg 36%
    22:00 +6°C° 0 mm 15 mps 752 mmHg 36%
    23:00 +6°C° 0 mm 15 mps 753 mmHg 36%
    Show more